Regional Weather Roundup
Issued by NWS Jackson, KY

Home | Current Version | Previous Version | Text Only | Print | Product List | Glossary Off
Versions: 1 2 3 4 5 6 7 8 9 10 11 12 13 14 15 16 17 18 19 20 21 22 23 24 25 26 27 28

000
ASUS43 KJKL 241710
RWRJKL

EAST KENTUCKY HOURLY WEATHER ROUNDUP
NATIONAL WEATHER SERVICE JACKSON KY
100 PM EDT TUE APR 24 2018

NOTE: "FAIR" INDICATES FEW OR NO CLOUDS BELOW 12,000 FEET WITH
NO SIGNIFICANT WEATHER AND/OR OBSTRUCTIONS TO VISIBILITY.

* THESE REPORTS ARE NOT UNDER NWS QUALITY CONTROL AND MAY NOT
  REPORT WEATHER SUCH AS PRECIPITATION AND FOG.

KYZ079-080-083-085-087-088-110-112-115-119-120-241800
...EASTERN KENTUCKY...

CITY           SKY/WX    TMP DP  RH WIND       PRES   REMARKS
JACKSON        CLOUDY    58  54  86 CALM      29.89F
LONDON         LGT RAIN  58  54  86 CALM      29.89F
SOMERSET*      CLOUDY    57  52  82 CALM      29.91F
MONTICELLO*    CLOUDY    59  55  87 VRB7      29.91F
WILLIAMSBURG*    N/A     57  57 100 CALM      29.89F
MIDDLESBORO*   CLOUDY    60  53  79 CALM      29.88F
HARLAN APT*    CLOUDY    63  52  66 E3        29.87F
PIKE CO APT*   CLOUDY    61  49  64 SE5       29.89S
BIG SANDY APT* CLOUDY    63  50  64 SE9       29.90S
MOREHEAD APT*  CLOUDY    57  52  82 VRB6G13   29.92F
ASHLAND*       CLOUDY    54  52  93 VRB3      29.94F
$$

KYZ035-036-041-042-044-050-067-078-099-241800
...CENTRAL KENTUCKY...

CITY           SKY/WX    TMP DP  RH WIND       PRES   REMARKS
MT STERLING*   LGT RAIN  54  54 100 E5        29.92S
FLEMING/MASON* CLOUDY    56  54  91 E9        29.93F
DANVILLE*      DRIZZLE   54  52  94 CALM      29.92F
LEXINGTON      LGT RAIN  56  52  86 E5        29.91F
FRANKFORT      LGT RAIN  56  52  86 NE3       29.90F
LOUISVILLE     CLOUDY    57  53  86 CALM      29.91F
GLASGOW*       DRIZZLE   57  55  92 W5        29.91S
BOWLING GREEN  CLOUDY    61  55  81 NW7       29.91F
$$

KYZ091>093-OHZ055-061-077-WVZ005-015-034-035-042-241800
...SOUTHERN OHIO/WEST VIRGINIA...

CITY           SKY/WX    TMP DP  RH WIND       PRES   REMARKS
COVINGTON      CLOUDY    55  53  93 E9        29.92F
COLUMBUS       LGT RAIN  53  50  89 E15       29.99F
DAYTON         CLOUDY    52  52 100 E14       29.98F FOG
WILMINGTON     LGT RAIN  52  52 100 E9G20     29.95F
HUNTINGTON     LGT RAIN  54  51  90 NE8       29.92F
CHARLESTON     RAIN      60  52  74 SE10G17   29.92F
PINEVILLE*     CLOUDY    59  49  68 MISG      29.97F
BECKLEY        CLOUDY    52  49  89 SE16      29.94F
BLUEFIELD      LGT RAIN  49  47  93 E10G21    29.95  FOG
LOGAN CO APT*  CLOUDY    57  50  77 SE10G24   29.90F HAZE
$$

VAZ002-007-008-TNZ017-027-036-066-071-241800
...SOUTHWEST VIRGINIA/EAST TENNESSEE...

CITY           SKY/WX    TMP DP  RH WIND       PRES   REMARKS
WISE*          DRIZZLE   55  55 100 SE5       29.91F
JONESVILLE*      N/A     61  54  77 E7        29.90F
ABINGDON*      LGT RAIN  56  52  85 E10       29.91F
BRISTOL        LGT RAIN  58  56  93 E6        29.89S FOG
MORRISTOWN*    MOSUNNY   63  55  77 E5        29.85F
SEVIERVILLE*   PTSUNNY   61  57  88 SW5       29.86F
KNOXVILLE      CLOUDY    61  58  90 NW6       29.87F
LAFOLLETTE*    CLOUDY    61  54  77 CALM      29.91F
OAK RIDGE      CLOUDY    61  56  83 S3        29.88
CROSSVILLE     CLOUDY    57  54  89 W12       29.90S
NASHVILLE      CLOUDY    64  55  72 W8        29.92F
$$

...KEY TO REMARKS...
VSB - VISIBILITY IN MILES
WCI - WIND CHILL INDEX
HX  - HEAT INDEX

$$




USA.gov is the U.S. government's official web portal to all federal, state and local government web resources and services.